Flag for China Weather past 2 weeks in Taiyuan, Shanxi, China

Now
50 °F

Light rain. Passing clouds.


Feels Like: 49 °F
Forecast: 46 / 59 °F
Wind: 3 mph from North

Location: Taiyuan Airport

Current Time: Apr 19, 2015 at 5:44:29 AM

Latest Report: Apr 19, 2015 at 5:00 AM


Visibility: 4 mi

Pressure: 29.95 "Hg

Humidity: 82%

Dew point: 45 °F

Location of TaiyuanLocation

Historic Weather in Taiyuan — Graph

°F

Taiyuan temperature yesterday

Maximum temperature yesterday: 64 °F (at 10:30 AM)
Minimum temperature yesterday: 50 °F (at 5:00 PM)
Average temperature yesterday: 57 °F

Past Weeks' High & Low Weather Summary

 TemperatureHumidityPressure
High84 °F (Apr 15, 3:30 PM)93% (Apr 9, 5:30 AM)30.42 "Hg (Apr 9, 5:30 AM)
Low32 °F (Apr 7, 6:30 AM)6% (Apr 15, 4:00 PM)29.56 "Hg (Apr 15, 3:30 PM)
Average51 °F39%30.06 "Hg
* Reported Apr 4 4:00 AM — Apr 19 4:30 AM, Taiyuan, Weather by CustomWeather, © 2015

Note: Actual official high and low records may vary slightly from our data, if they occured in-between our weather recording intervals... More about our weather records

Advertising

Taiyuan weather history for previous 24 hours

 ConditionsComfort  
Time TempWeatherWind HumidityBarometerVisibility
4:30 AM
Sun, Apr 19
50 °FLight rain. Passing clouds.6 mph82%29.95 "Hg4 mi
4:00 AM50 °FLight rain. Passing clouds.3 mph82%29.95 "Hg4 mi
3:30 AM50 °FLight rain. Passing clouds.3 mph82%29.95 "Hg4 mi
3:00 AM50 °FLight rain. Passing clouds.6 mph82%29.95 "Hg4 mi
2:30 AM50 °FLight rain. Passing clouds.3 mph82%29.95 "Hg4 mi
2:00 AM50 °FLight rain. Passing clouds.3 mph82%29.98 "Hg4 mi
1:30 AM50 °FLight rain. Fog.6 mph82%29.98 "Hg3 mi
1:00 AM50 °FLight rain. Overcast.8 mph82%29.98 "Hg4 mi
12:30 AM50 °FLight rain. Overcast.8 mph82%29.98 "Hg4 mi
12:00 AM50 °FLight rain. Overcast.6 mph82%29.98 "Hg4 mi
11:30 PM
Sat, Apr 18
50 °FLight rain. Fog.3 mph82%29.98 "Hg3 mi
11:00 PM50 °FLight rain. Fog.3 mph82%29.95 "Hg2 mi
10:30 PM50 °FLight rain. Passing clouds.8 mph82%29.95 "Hg4 mi
10:00 PM50 °FPassing clouds.8 mph82%29.95 "Hg4 mi
9:30 PM50 °FLight rain. Passing clouds.8 mph82%29.95 "HgN/A
9:00 PM50 °FLight rain. Passing clouds.8 mph82%29.95 "HgN/A
8:30 PM50 °FLight rain. Passing clouds.13 mph82%29.95 "HgN/A
8:00 PM50 °FLight rain. Passing clouds.13 mph82%29.92 "HgN/A
7:30 PM50 °FLight rain. Passing clouds.13 mph82%29.92 "HgN/A
7:00 PM50 °FLight rain. Partly sunny.15 mph82%29.89 "Hg5 mi
6:30 PM50 °FLight rain. More clouds than sun.17 mph82%29.89 "Hg5 mi
6:00 PM50 °FLight rain. More clouds than sun.17 mph82%29.89 "Hg4 mi
5:30 PM50 °FRain. More clouds than sun.10 mph82%29.86 "Hg4 mi
5:00 PM50 °FRain. Overcast.10 mph76%29.86 "Hg4 mi
4:30 PM52 °FLight rain. Partly sunny.13 mph72%29.86 "Hg4 mi
4:00 PM54 °FRain. Partly sunny.8 mph72%29.86 "Hg4 mi
3:30 PM55 °FLight rain. Partly sunny.3 mph77%29.83 "Hg5 mi
3:00 PM54 °FLight rain. Partly sunny.6 mph77%29.83 "Hg4 mi
2:30 PM55 °FLight rain. Partly sunny.6 mph77%29.86 "Hg4 mi
2:00 PM55 °FLight rain. Partly sunny.8 mph67%29.86 "HgN/A
1:30 PM59 °FLight rain. Partly sunny.6 mph55%29.83 "HgN/A
1:00 PM63 °FLight rain. Partly sunny.6 mph39%29.83 "HgN/A
12:30 PM63 °FPartly sunny.8 mph32%29.83 "Hg5 mi
12:00 PM63 °FPartly sunny.10 mph30%29.83 "Hg5 mi
11:30 AM64 °FClear.3 mph30%29.83 "Hg5 mi
11:00 AM64 °FClear.8 mph32%29.83 "Hg5 mi
10:30 AM64 °FClear.8 mph34%29.83 "Hg5 mi
10:00 AM63 °FClear.8 mph34%29.83 "Hg4 mi
9:30 AM61 °FClear.8 mph36%29.83 "Hg5 mi
9:00 AM59 °FClear.8 mph34%29.83 "Hg5 mi
8:30 AM59 °FClear.8 mph31%29.83 "Hg4 mi
8:00 AM59 °FClear.8 mph31%29.83 "Hg4 mi
7:30 AM59 °FSunny.10 mph27%29.80 "Hg10 mi
7:00 AM59 °FSunny.10 mph27%29.80 "Hg10 mi
6:30 AM59 °FSunny.8 mph25%29.80 "Hg10 mi
6:00 AM59 °FSunny.10 mph25%29.77 "Hg10 mi
5:30 AM59 °FClear.10 mph25%29.77 "Hg10 mi
Weather by CustomWeather, © 2015

See weather overviewHow to use our weather pages